Regional Weather Roundup
Issued by NWS

Home | Current Version | Previous Version | Graphics & Text | Print | Product List | Glossary On
Versions: 1 2 3 4 5 6 7 8 9 10 11 12 13 14 15 16 17 18 19 20 21 22 23 24 25 26 27 28 29 30 31 32 33 34 35 36 37 38 39 40 41 42 43 44 45 46 47 48 49 50
000
ASUS43 KLMK 180110
RWRKY
KENTUCKY REGIONAL WEATHER ROUNDUP
NATIONAL WEATHER SERVICE LOUISVILLE KY
800 PM EST SAT FEB 17 2018

NOTE "FAIR" INDICATES FEW OR NO CLOUDS BELOW 12,000 FEET
WITH NO SIGNIFICANT WEATHER AND/OR OBSTRUCTIONS TO VISIBILITY.

KYZ001>023-026-027-061>063-070>075-180200-
WESTERN AND SOUTH CENTRAL KENTUCKY

CITY           SKY/WX    TMP DP  RH WIND       PRES   REMARKS
PADUCAH        FAIR      40  36  86 SW6       30.18R
HENDERSON      CLOUDY    43  39  87 W8        30.17R
OWENSBORO      CLOUDY    42  40  92 W10       30.16R
HOPKINSVILLE   CLOUDY    45  45 100 W8        30.17R
BOWLING GREEN  CLOUDY    45  44  97 W5        30.16R FOG
GLASGOW        CLOUDY   N/A N/A N/A W6        30.15R FOG
$$

KYZ024-025-028>034-038-045-046-053-180200-
NORTH CENTRAL KENTUCKY

CITY           SKY/WX    TMP DP  RH WIND       PRES   REMARKS
LOUISVILLE/SDF CLOUDY    38  37  97 SW5       30.12R FOG     WCI  34
LOUISVILLE/LOU CLOUDY    38  38 100 SW5       30.12R FOG     WCI  34
FORT KNOX      CLOUDY    40  40  99 SW7       30.12R FOG
$$

KYZ035>037-039>044-047>052-055>060-089>105-180200-
NORTHEAST KENTUCKY

CITY           SKY/WX    TMP DP  RH WIND       PRES   REMARKS
LEXINGTON      CLOUDY    40  37  89 W9        30.09R FOG     WCI  34
COVINGTON      SNOW      34  34 100 SW5       30.06R VSB 1/2 WCI  30
FRANKFORT      CLOUDY    37  35  92 CALM      30.09R FOG
$$

KYZ054-064>069-076>088-106>120-180200-
SOUTHEAST KENTUCKY

CITY           SKY/WX    TMP DP  RH WIND       PRES   REMARKS
JACKSON        FOG       39  39 100 VRB3      30.07R VSB 1/2
LONDON         CLOUDY    44  42  93 W10       30.11R
SOMERSET       CLOUDY    43  43 100 W9        30.13R
MIDDLESBORO    CLOUDY    48  46  94 CALM      30.10R
MONTICELLO     NOT AVBL
$$





USA.gov is the U.S. government's official web portal to all federal, state and local government web resources and services.